| time (UTC) | temp C | wind direction | speed KPH | gust KPH | rain 1hr cm | rain 24hr cm | rain mn cm | humidity % | barometer mb |
| 20260504044536 | 5 | 208 | 0.0 | 0.0 | 0.00 | 0.00 | 0.00 | 79 | 1015.2 |
| 20260504043021 | 5 | 208 | 0.0 | 0.0 | 0.00 | 0.00 | 0.00 | 79 | 1014.9 |
| 20260504041529 | 5 | 208 | 0.0 | 0.0 | 0.00 | 0.00 | 0.00 | 78 | 1014.8 |
| 20260504040032 | 5 | 208 | 0.0 | 0.0 | 0.00 | 0.00 | 0.00 | 75 | 1014.6 |
| 20260504034538 | 6 | 208 | 0.0 | 0.0 | 0.00 | 0.00 | 0.00 | 75 | 1014.5 |
| 20260504033036 | 6 | 208 | 0.0 | 0.0 | 0.00 | 0.00 | 0.00 | 74 | 1014.5 |
| 20260504031503 | 6 | 208 | 0.0 | 0.0 | 0.00 | 0.00 | 0.00 | 71 | 1014.4 |
| 20260504030004 | 6 | 208 | 0.0 | 0.0 | 0.00 | 0.00 | 0.00 | 70 | 1014.4 |
| 20260504024505 | 7 | 208 | 0.0 | 0.0 | 0.00 | 0.00 | 0.00 | 68 | 1014.4 |
| 20260504023004 | 7 | 208 | 0.0 | 0.0 | 0.00 | 0.00 | 0.00 | 65 | 1014.5 |
| 20260504021504 | 7 | 208 | 0.0 | 0.0 | 0.00 | 0.00 | 0.00 | 65 | 1014.4 |
| 20260504020008 | 7 | 208 | 0.0 | 0.0 | 0.00 | 0.00 | 0.00 | 62 | 1014.3 |
| 20260504014505 | 8 | 208 | 0.0 | 0.0 | 0.00 | 0.00 | 0.00 | 60 | 1014.2 |
| 20260504013009 | 8 | 208 | 0.0 | 0.0 | 0.00 | 0.00 | 0.00 | 59 | 1014.1 |
| 20260504011504 | 9 | 208 | 0.0 | 0.0 | 0.00 | 0.00 | 0.00 | 55 | 1013.9 |
| 20260504010008 | 10 | 208 | 0.0 | 0.0 | 0.00 | 0.00 | 0.00 | 52 | 1013.8 |
| 20260504004510 | 10 | 208 | 0.0 | 0.0 | 0.00 | 0.00 | 0.00 | 51 | 1013.7 |
| 20260504003007 | 11 | 208 | 0.0 | 0.0 | 0.00 | 0.00 | 0.00 | 48 | 1013.4 |
| 20260504001508 | 11 | 208 | 0.0 | 0.0 | 0.00 | 0.00 | 0.00 | 43 | 1013.1 |
| 20260504000009 | 12 | 208 | 0.0 | 1.6 | 0.00 | 0.00 | 0.00 | 40 | 1013.1 |
| 20260503234508 | 13 | 221 | 0.0 | 3.2 | 0.00 | 0.00 | 0.00 | 37 | 1013.0 |
| 20260503233009 | 13 | 335 | 0.0 | 4.8 | 0.00 | 0.00 | 0.00 | 38 | 1012.8 |
| 20260503231510 | 13 | 311 | 0.0 | 14.5 | 0.00 | 0.00 | 0.00 | 35 | 1012.8 |
| 20260503230010 | 14 | 291 | 0.0 | 9.7 | 0.00 | 0.00 | 0.00 | 34 | 1012.7 |
| 20260503224507 | 15 | 314 | 1.6 | 4.8 | 0.00 | 0.00 | 0.00 | 33 | 1012.7 |
| 20260503223012 | 15 | 290 | 1.6 | 11.3 | 0.00 | 0.00 | 0.00 | 33 | 1012.5 |
| 20260503221510 | 15 | 138 | 3.2 | 16.1 | 0.00 | 0.00 | 0.00 | 31 | 1012.5 |
| 20260503220012 | 15 | 289 | 3.2 | 11.3 | 0.00 | 0.00 | 0.00 | 31 | 1012.5 |
| 20260503214514 | 15 | 303 | 4.8 | 12.9 | 0.00 | 0.00 | 0.00 | 31 | 1012.5 |
| 20260503213025 | 15 | 96 | 3.2 | 16.1 | 0.00 | 0.00 | 0.00 | 30 | 1012.4 |
| 20260503211518 | 15 | 311 | 1.6 | 14.5 | 0.00 | 0.00 | 0.00 | 32 | 1012.5 |
| 20260503210014 | 15 | 290 | 1.6 | 12.9 | 0.00 | 0.00 | 0.00 | 32 | 1012.6 |
| 20260503204515 | 15 | 284 | 1.6 | 17.7 | 0.00 | 0.00 | 0.00 | 35 | 1012.6 |
| 20260503203016 | 15 | 278 | 3.2 | 11.3 | 0.00 | 0.00 | 0.00 | 34 | 1012.5 |
| 20260503201527 | 15 | 302 | 3.2 | 11.3 | 0.00 | 0.00 | 0.00 | 33 | 1012.9 |
| 20260503200027 | 14 | 14 | 3.2 | 14.5 | 0.00 | 0.00 | 0.00 | 36 | 1012.6 |
| 20260503194523 | 14 | 189 | 3.2 | 14.5 | 0.00 | 0.00 | 0.00 | 35 | 1012.9 |
| 20260503193016 | 14 | 1 | 4.8 | 16.1 | 0.00 | 0.00 | 0.00 | 33 | 1013.1 |
| 20260503191520 | 14 | 248 | 8.0 | 19.3 | 0.00 | 0.00 | 0.00 | 32 | 1013.3 |
| 20260503190022 | 14 | 347 | 1.6 | 16.1 | 0.00 | 0.00 | 0.00 | 35 | 1013.2 |
| 20260503184526 | 14 | 297 | 3.2 | 12.9 | 0.00 | 0.00 | 0.00 | 35 | 1013.4 |
| 20260503183027 | 14 | 307 | 4.8 | 16.1 | 0.00 | 0.00 | 0.00 | 34 | 1013.6 |
| 20260503181523 | 13 | 75 | 1.6 | 16.1 | 0.00 | 0.00 | 0.00 | 34 | 1013.7 |
| 20260503180004 | 13 | 201 | 4.8 | 16.1 | 0.00 | 0.00 | 0.00 | 34 | 1013.7 |
| 20260503174504 | 12 | 268 | 6.4 | 16.1 | 0.00 | 0.00 | 0.00 | 35 | 1013.9 |
| 20260503173040 | 12 | 205 | 6.4 | 16.1 | 0.00 | 0.00 | 0.00 | 36 | 1013.9 |
| 20260503171520 | 13 | 338 | 1.6 | 9.7 | 0.00 | 0.00 | 0.00 | 39 | 1014.1 |
| 20260503081518 | 5 | 288 | 0.0 | 1.6 | 0.00 | 0.00 | 0.00 | 77 | 1011.8 |
| 20260503071509 | 6 | 316 | 0.0 | 0.0 | 0.00 | 0.00 | 0.00 | 71 | 1011.4 |